Regional Weather Roundup
Issued by NWS

Home | Current Version | Previous Version | Graphics & Text | Print | Product List | Glossary On
Versions: 1 2 3 4 5 6 7 8 9 10 11 12 13 14 15 16 17 18 19 20 21 22 23 24 25 26 27 28 29 30 31 32 33 34 35 36 37 38 39 40 41 42 43 44 45 46 47 48 49 50
440
ASUS43 KOAX 251502
RWRNE

WEATHER ROUNDUP FOR NEBRASKA
NATIONAL WEATHER SERVICE OMAHA NE
1000 AM CDT THU AUG 25 2016

NOTES: SATELLITE DATA IS BEING USED TO AUGMENT CLOUD COVER ABOVE
       12000 FEET.
       "FAIR" INDICATES FEW OR NO CLOUDS BELOW 12,000 FEET WITH NO
       SIGNIFICANT WEATHER AND/OR OBSTRUCTIONS TO VISIBILITY.

  * THESE STATIONS DO NOT REPORT WEATHER SUCH AS RAIN...SNOW OR FOG.

NEZ001>004-019>022-054>056-251600-
NEBRASKA PANHANDLE

CITY           SKY/WX    TMP DP  RH WIND       PRES   REMARKS
SCOTTSBLUFF    CLOUDY    58  44  60 NE10      30.33R
ALLIANCE       PTSUNNY   57  42  57 NE14G23   30.31R
CHADRON        LGT RAIN  53  46  77 CALM      30.33R
KIMBALL        SUNNY     56  50  81 NE12      30.31R
SIDNEY         SUNNY     59  47  64 E12       30.30R
$$

NEZ057>060-069>072-079>082-251600-
SOUTHWEST NEBRASKA

CITY           SKY/WX    TMP DP  RH WIND       PRES   REMARKS
NORTH PLATTE   MOSUNNY   65  48  54 NE16      30.23R
IMPERIAL       SUNNY     64  49  57 NE14      30.25R
LEXINGTON      CLOUDY    64  53  67 NE6       30.23R
MCCOOK         MOSUNNY   70  49  47 NE7       30.22R
OGALLALA       SUNNY     64  44  47 NE13      30.27R
$$

NEZ005>010-023>029-035>040-094-251600-
NORTH CENTRAL NEBRASKA

CITY           SKY/WX    TMP DP  RH WIND       PRES   REMARKS
VALENTINE      CLOUDY    60  45  57 NW12G22   30.27R
AINSWORTH      CLOUDY    58  49  71 N14G20    30.25R
BROKEN BOW     CLOUDY    62  48  60 N8        30.22R
O`NEILL        CLOUDY    62  51  66 NW9       30.23R
ORD            CLOUDY    63  50  62 N12       30.20R
THEDFORD       MOSUNNY   62  48  58 N12G18    30.26F
$$

NEZ041-046>049-061>064-073>077-083>087-251600-
SOUTH CENTRAL NEBRASKA

CITY           SKY/WX    TMP DP  RH WIND       PRES   REMARKS
GRAND ISLAND   CLOUDY    65  55  70 N5        30.19R
AURORA         CLOUDY    63  60  89 CALM      30.18R
HASTINGS       CLOUDY    64  57  78 NW6       30.20R
HEBRON         CLOUDY    63  59  86 CALM      30.15R
HOLDREGE       MOSUNNY   64  56  77 CALM      30.21R
KEARNEY *      CLOUDY    64  54  68 N8        30.20R
YORK           CLOUDY    63  59  88 NW3       30.17R
$$

NEZ011>018-030>034-042>045-251600-
NORTHEAST NEBRASKA

CITY           SKY/WX    TMP DP  RH WIND       PRES   REMARKS
NORFOLK        CLOUDY    61  55  81 NW6       30.16S
ALBION         CLOUDY    63  53  70 N9        30.18R
BLAIR          CLOUDY    63  61  91 CALM      30.13F
FREMONT        CLOUDY    61  59  93 NW6       30.15R
TEKAMAH        CLOUDY    62  60  93 CALM      30.14R
WAYNE          CLOUDY    61  57  87 N7        30.17R
$$

NEZ050>053-065>068-078-088>093-251600-
SOUTHEAST NEBRASKA

CITY           SKY/WX    TMP DP  RH WIND       PRES   REMARKS
LINCOLN        LGT RAIN  63  59  87 N6        30.14S
OMAHA EPPLEY   CLOUDY    62  58  86 CALM      30.14R
BEATRICE       CLOUDY    62  59  89 E8        30.10F
FALLS CITY     RAIN      64  63  96 NE7       30.11S
NEBRASKA CITY  LGT RAIN  63  63 100 NE8       30.12F
PLATTSMOUTH    LGT RAIN  63  62  97 E3        30.14S
$$

NEZ044-045-051>053-067-251600-
OMAHA AREA

CITY           SKY/WX    TMP DP  RH WIND       PRES   REMARKS
OMAHA EPPLEY   CLOUDY    62  58  86 CALM      30.14R
BLAIR          CLOUDY    63  61  91 CALM      30.13F
FREMONT        CLOUDY    61  59  93 NW6       30.15R
MILLARD        CLOUDY    64  59  84 CALM      30.13F
OFFUTT AFB     CLOUDY    63  62  96 CALM      30.13S
PLATTSMOUTH    LGT RAIN  63  62  97 E3        30.14S
WAHOO          FAIR      61  58  92 N3        30.14S
$$




USA.gov is the U.S. government's official web portal to all federal, state and local government web resources and services.